Tracking 29510 objects as of 16-Sep-2024
HD Live streaming from Space Station
objects crossing your sky now

FENGYUN 1C DEB

Track FENGYUN 1C DEB now!
10-day predictions


NORAD ID: 33713
Int'l Code: 1999-025DHA
Perigee: 454.9 km
Apogee: 565.0 km
Inclination: 99.0 °
Period: 94.7 minutes
Semi major axis: 6880 km
RCS: 0.0118 m2 (small)
Launch date: May 10, 1999
Source: People's Republic of China (PRC)
Launch site: Taiyaun Space Center, China (TSC)

Note: This is SATELLITE DEBRIS
Your satellite tracking list
Your tracking list is empty




NASA's NSSDC Master Catalog

Two Line Element Set (TLE):
1 33713U 99025DHA 24258.40323571  .00257438  00000-0  10328-1 0  9992
2 33713  99.0485 239.9337 0079977 135.1858 225.5869 15.20996481886510
Source of the keplerian elements: AFSPC